Temp
87 91 90 91 95 95 96 97 96 91 91 90 90 90 90 90 89 88 86 85 84 91
87 87 90 88 90 94 93 98 96 94 91 91 90 90 89 90 88 89 86 86 85 86
88 88 89 90 89 90 92 94 95 93 91 90 90 90 88 89 89 87 88 89 86 85
89 90 89 90 91 90 91 92 91 92 91 90 89 89 88 88 90 86 85 87 87 84
90 90 90 89 91 91 90 90 91 90 90 90 90 89 88 87 89 88 85 85 85 85
90 90 89 89 90 91 89 90 91 90 89 89 89 89 89 88 88 89 88 86 85 85
89 89 91 90 90 90 90 89 89 89 89 89 90 90 90 89 88 88 89 88 87 86
91 90 90 89 90 90 90 90 89 89 89 90 91 93 89 89 88 87 87 89 88 88
91 90 89 89 89 89 89 89 89 88 89 89 93 81 75 84 89 88 87 86 87 88
91 89 88 89 88 87 87 89 88 88 89 88 89 74 72 73 90 89 88 87 87 88
91 89 89 88 87 87 88 87 87 88 88 88 90 71 67 71 87 88 88 87 86 86
92 89 88 87 87 88 88 88 87 88 87 86 87 68 65 69 87 87 85 86 87 86
92 90 88 88 87 88 88 88 90 89 88 82 87 67 62 70 89 85 87 85 83 71
92 89 89 88 88 87 87 88 86 88 88 88 85 83 60 61 81 84 85 87 88 89
MSLP
1011.22 1011.35 1011.83 1011.81 1011.44 1011.87 1011.82 1011.97 1012.41 1013.49 1014.08 1014.60 1015.06 1015.34 1015.42 1016.04 1016.48 1016.72 1017.07 1017.05 1017.11 1016.40
1010.28 1010.61 1010.50 1011.03 1011.40 1011.49 1011.55 1011.58 1011.99 1012.79 1013.65 1014.10 1014.48 1014.81 1015.27 1015.66 1015.94 1016.12 1016.59 1016.65 1016.89 1016.93
1008.78 1009.47 1009.92 1010.28 1010.59 1010.88 1011.17 1011.43 1011.52 1012.19 1013.04 1013.65 1013.95 1014.33 1014.79 1014.89 1015.30 1015.74 1015.87 1016.14 1016.27 1016.64
1007.49 1008.22 1009.03 1009.36 1009.69 1010.22 1010.62 1010.91 1011.32 1011.65 1012.30 1012.89 1013.35 1013.74 1014.14 1014.40 1014.41 1015.02 1015.46 1015.52 1015.58 1016.04
1006.23 1007.03 1007.59 1008.17 1008.76 1009.25 1009.65 1010.19 1010.40 1011.03 1011.49 1012.04 1012.54 1012.93 1013.30 1013.70 1013.66 1014.00 1014.61 1014.86 1015.01 1015.22
1005.14 1005.71 1006.15 1006.88 1007.74 1008.29 1008.90 1009.33 1009.75 1010.21 1010.56 1011.11 1011.56 1012.00 1012.35 1012.80 1013.17 1013.06 1013.36 1013.82 1014.33 1014.70
1003.96 1004.38 1005.02 1005.90 1006.60 1007.29 1007.80 1008.32 1008.72 1009.28 1009.81 1010.27 1010.88 1011.23 1011.40 1011.72 1011.97 1012.16 1012.33 1012.89 1013.55 1014.14
1002.85 1003.72 1004.54 1005.00 1005.47 1006.13 1006.76 1007.35 1008.05 1008.52 1008.97 1009.39 1009.79 1010.08 1010.50 1010.71 1011.01 1011.45 1011.85 1012.20 1012.73 1013.20
1001.83 1002.79 1003.43 1004.09 1004.60 1005.26 1005.68 1006.22 1006.92 1007.25 1007.81 1008.41 1008.74 1008.99 1009.44 1010.06 1010.46 1010.80 1011.18 1011.34 1011.34 1011.96
1000.64 1001.47 1002.35 1003.16 1003.71 1003.89 1004.35 1005.34 1005.72 1006.37 1006.87 1007.09 1007.28 1007.46 1008.04 1008.93 1009.55 1009.73 1009.97 1010.50 1010.92 1010.84
999.57 1000.51 1001.46 1002.14 1002.54 1003.51 1004.12 1004.40 1004.92 1005.43 1005.82 1006.17 1006.35 1006.96 1007.76 1008.28 1008.76 1008.93 1009.02 1009.10 1009.26 1009.47
998.78 999.66 1000.38 1000.96 1001.94 1002.68 1003.29 1003.61 1003.80 1004.14 1004.54 1004.71 1005.07 1005.74 1006.43 1007.55 1007.96 1007.79 1007.74 1007.68 1007.44 1007.67
998.19 998.82 999.49 1000.19 1000.76 1001.46 1002.04 1002.40 1002.83 1002.92 1002.98 1003.29 1003.85 1004.64 1005.62 1006.26 1006.37 1006.93 1007.05 1006.34 1006.54 1007.02
997.35 998.08 998.87 999.50 1000.01 1000.56 1001.10 1001.44 1001.85 1001.92 1002.14 1002.60 1003.24 1003.57 1004.37 1004.97 1004.69 1002.36 1003.47 1004.21 1004.16 1004.81
Wind_Speed
17 13 14 13 11 11 10 10 8 13 11 11 12 11 8 8 8 8 8 8 7 6
18 18 16 17 14 12 10 11 9 10 11 12 12 11 10 9 10 7 9 9 8 8
20 20 17 14 15 15 13 11 8 12 12 13 12 12 11 11 10 10 9 9 10 8
20 20 19 17 16 16 14 13 14 11 13 13 14 13 12 12 10 13 11 10 9 11
20 20 20 19 19 18 17 16 15 15 15 15 15 14 15 15 14 13 14 14 12 12
21 20 21 20 19 19 18 17 17 17 16 17 16 16 15 15 15 14 15 15 14 13
20 22 20 19 19 19 19 19 18 17 17 17 17 17 17 18 17 17 15 15 14 14
20 18 17 18 19 19 19 18 18 18 18 18 18 16 18 18 18 17 16 15 15 15
19 18 19 18 18 18 19 19 18 19 19 19 16 19 18 19 16 17 16 16 16 15
19 20 19 18 18 20 20 17 19 19 19 20 21 19 21 21 17 16 16 16 14 16
19 18 18 19 19 16 15 17 16 17 19 18 17 14 15 19 20 17 17 17 19 19
17 18 18 19 17 16 15 16 17 17 19 21 19 18 19 17 15 19 20 19 21 21
16 17 18 17 18 16 16 16 15 18 20 22 19 16 18 18 12 15 16 21 21 17
16 16 16 16 15 15 15 15 16 17 17 18 18 16 20 22 18 21 19 17 16 15
Wind_Direction
211 213 214 217 222 210 233 211 195 178 194 216 194 213 202 212 212 196 210 215 246 272
203 212 212 216 210 236 215 238 188 185 189 203 212 201 205 219 190 213 203 204 216 241
203 205 215 209 215 210 226 222 240 181 192 207 205 209 205 207 212 200 205 223 196 219
204 204 205 216 208 216 208 218 211 200 195 202 208 207 205 223 217 195 209 223 219 204
205 204 204 208 212 204 212 206 203 208 196 204 207 207 207 209 221 201 207 214 220 213
206 206 208 205 205 210 206 209 210 202 208 203 207 210 207 210 218 217 209 211 214 215
209 210 207 205 203 206 207 208 208 208 208 207 208 211 212 209 215 218 217 211 214 211
207 211 210 207 207 206 207 207 209 208 209 210 210 212 214 217 215 219 220 214 212 215
204 202 208 209 207 207 208 207 205 210 210 210 215 215 205 214 222 219 222 220 216 218
200 203 204 207 208 209 207 204 210 211 212 214 217 210 199 198 217 223 221 225 223 223
204 202 201 205 211 210 209 210 210 212 215 220 222 205 195 196 214 224 231 223 221 225
201 202 201 205 204 205 208 208 211 212 213 217 220 194 188 185 217 227 229 230 228 222
209 203 206 201 200 201 206 212 211 215 217 217 218 189 178 185 214 230 235 234 235 226
204 202 205 204 201 200 205 212 213 222 218 223 216 210 175 186 208 213 221 229 225 222